Regional Weather Roundup
Issued by NWS Jackson, KY

Home | Current Version | Previous Version | Graphics & Text | Print | Product List | Glossary On
Versions: 1 2 3 4 5 6 7 8 9 10 11 12 13 14 15 16 17 18 19 20 21 22 23 24 25 26 27 28 29 30 31 32 33 34 35 36 37 38 39 40 41 42 43 44 45 46 47 48 49 50
000
ASUS43 KJKL 281219
RWRJKL

EAST KENTUCKY HOURLY WEATHER ROUNDUP
NATIONAL WEATHER SERVICE JACKSON KY
700 AM EST SUN DEC 28 2014

NOTE: "FAIR" INDICATES FEW OR NO CLOUDS BELOW 12,000 FEET WITH
NO SIGNIFICANT WEATHER AND/OR OBSTRUCTIONS TO VISIBILITY.

* THESE REPORTS ARE NOT UNDER NWS QUALITY CONTROL AND MAY NOT
  REPORT WEATHER SUCH AS PRECIPITATION AND FOG.

KYZ079-080-083-085-087-088-110-112-115-119-120-281300
...EASTERN KENTUCKY...

CITY           SKY/WX    TMP DP  RH WIND       PRES   REMARKS
JACKSON        FOG       46  44  93 CALM      30.04R VSB 1/4
6HR MIN TEMP:  45; 6HR MAX TEMP:  46; 6HR PCP:  0.06;

LONDON         RAIN      47  43  86 CALM      30.05F FOG
6HR MIN TEMP:  46; 6HR MAX TEMP:  47; 6HR PCP:  0.07;

SOMERSET*      LGT RAIN  45  45 100 CALM      30.08R
MONTICELLO*    CLOUDY    48  48 100 CALM      30.10R FOG
6HR MIN TEMP:  47; 6HR MAX TEMP:  48; 6HR PCP:  0.11;

MIDDLESBORO*   CLOUDY    47  47 100 CALM      30.04F FOG
6HR MIN TEMP:  46; 6HR MAX TEMP:  49; 6HR PCP:  0.10;

HARLAN APT*    CLOUDY    45  45 100 CALM      30.04S VSB 1/4
HAZARD APT*    RAIN      46  46 100 CALM      30.05R
BLACK MTN*       N/A     46  46 100 S6          N/A
PIKEVILLE APT* LGT RAIN  45  45 100 SE3       30.04S VSB 1/4
BIG SANDY*     DRIZZLE   46  46  99 S3        30.05R
6HR MIN TEMP:  46; 6HR MAX TEMP:  50;

MOREHEAD APT*  LGT RAIN  45  45 100 NW10G21   30.08R
ASHLAND*       CLOUDY   N/A N/A N/A NW3       30.03R
$$

KYZ035-036-041-042-044-050-067-078-099-281300
...CENTRAL KENTUCKY...

CITY           SKY/WX    TMP DP  RH WIND       PRES   REMARKS
MT STERLING*   CLOUDY    41  41 100 N12       30.08R FOG
FLEMING/MASON* CLOUDY    39  39 100 NW9G16    30.10R WCI  33
DANVILLE*      DRIZZLE   41  41 100 N12G18    30.09R
RICHMOND*      CLOUDY    46  45  93 W6        30.06R
LEXINGTON      CLOUDY    40  39  97 NW12      30.09R FOG     WCI  33
6HR MIN TEMP:  40; 6HR MAX TEMP:  47; 6HR PCP:  0.03;

FRANKFORT      CLOUDY    39  37  92 N7        30.09R FOG     WCI  34
6HR MIN TEMP:  39; 6HR MAX TEMP:  47; 6HR PCP:  0.07;

$$

KYZ091>093-OHZ055-061-077-WVZ005-015-034-035-042-281300
...SOUTHERN OHIO/WEST VIRGINIA...

CITY           SKY/WX    TMP DP  RH WIND       PRES   REMARKS
COVINGTON      DRIZZLE   36  31  82 N8        30.11R WCI  30
COLUMBUS       CLOUDY    36  36 100 NW9       30.08R FOG     WCI  29
DAYTON         CLOUDY    34  32  92 NW8       30.11R FOG     WCI  27
WILMINGTON     CLOUDY    35  32  88 NW9       30.09S FOG     WCI  28
HUNTINGTON     CLOUDY    47  47 100 S3        30.03S FOG
CHARLESTON     LGT RAIN  48  45  89 W6        30.04R
PINEVILLE*     CLOUDY    46  46 100 MISG      30.09S FOG
BECKLEY        CLOUDY    43  41  93 CALM      30.03R
BLUEFIELD      LGT RAIN  46  41  82 W9        30.03S
$$

VAZ002-007-008-TNZ017-027-036-066-071-281300
...SOUTHWEST VIRGINIA/EAST TENNESSEE...

CITY           SKY/WX    TMP DP  RH WIND       PRES   REMARKS
WISE*          CLOUDY    48  48 100 W3        30.04S FOG
JONESVILLE*    CLOUDY    45  45 100 CALM      30.06F FOG
ABINGDON*      CLOUDY    48  38  69 CALM      30.06S
BRISTOL        CLOUDY    46  42  86 CALM      30.07R
KNOXVILLE      CLOUDY    48  43  82 NE3       30.05F
OAK RIDGE      CLOUDY    52  50  93 VRB5      30.06S FOG
CROSSVILLE     LGT RAIN  50  47  89 W5        30.06R FOG
NASHVILLE      LGT RAIN  42  41  96 N12       30.12R FOG
$$

...KEY TO REMARKS...
VSB - VISIBILITY IN MILES
WCI - WIND CHILL INDEX
HX  - HEAT INDEX

$$


USA.gov is the U.S. government's official web portal to all federal, state and local government web resources and services.